SAST,Max TemperatureF,Mean TemperatureF,Min TemperatureF,Max Dew PointF,MeanDew PointF,Min DewpointF,Max Humidity, Mean Humidity, Min Humidity, Max Sea Level PressureIn, Mean Sea Level PressureIn, Min Sea Level PressureIn, Max VisibilityMiles, Mean VisibilityMiles, Min VisibilityMiles, Max Wind SpeedMPH, Mean Wind SpeedMPH, Max Gust SpeedMPH,PrecipitationIn, CloudCover, Events, WindDirDegrees
2013-1-1,71,64,57,59,55,52,88,74,51,30.09,30.06,30.04,12,8,6,13,7,,0.01,6,,207
2013-1-2,83,70,56,59,56,52,88,62,34,30.04,29.81,29.68,19,13,6,13,9,,0.00,3,,125
2013-1-3,78,69,59,59,54,48,88,64,36,30.01,29.81,29.68,12,8,6,32,14,36,0.02,5,,258
2013-1-4,69,64,55,54,50,46,88,62,37,30.12,30.07,30.01,12,8,6,18,12,,0.00,4,,246
2013-1-5,75,63,51,59,54,48,94,70,38,30.09,29.95,29.82,12,10,6,16,5,,0.00,1,,80
2013-1-6,75,67,59,63,59,57,88,74,51,30.09,29.96,29.83,12,7,6,14,8,,0.00,6,,255
2013-1-7,77,66,54,64,60,53,94,78,54,30.09,30.02,29.92,12,7,0,16,6,,0.00,3,Fog,88
2013-1-8,71,66,62,64,60,52,94,79,53,30.02,29.98,29.92,12,6,0,14,6,,0.01,6,Fog-Rain,253
2013-1-9,77,70,60,59,54,50,77,62,31,29.98,29.85,29.77,19,8,6,23,8,,0.31,5,Rain,256
2013-1-10,71,63,55,55,50,43,94,68,30,30.06,29.96,29.86,12,7,4,24,14,,0.02,5,Rain,256
2013-1-11,69,60,51,52,49,46,88,64,41,30.13,30.08,30.04,19,8,6,13,7,,0.00,4,,155
2013-1-12,74,62,50,63,55,46,94,70,43,30.12,30.04,29.92,19,8,3,18,7,,0.00,1,,86
2013-1-13,89,72,56,63,57,50,100,59,20,29.92,29.77,29.68,12,10,0,12,5,,0.00,,,196
2013-1-14,75,70,64,63,61,57,94,74,53,30.06,29.96,29.86,19,8,2,15,10,,0.31,4,Rain,228
2013-1-15,72,67,62,63,61,59,94,83,63,30.12,30.08,30.04,12,6,2,21,12,,0.00,6,Rain,110
2013-1-16,79,68,58,66,62,57,94,77,51,30.04,29.95,29.86,19,8,3,12,5,,0.00,2,,107
2013-1-17,83,74,66,70,67,64,100,85,55,29.95,29.89,29.84,19,5,0,15,7,,0.04,5,Fog-Rain-Thunderstorm,275
2013-1-18,71,68,66,68,66,63,100,89,76,30.04,29.97,29.91,12,5,1,10,7,,0.00,7,Rain,168
2013-1-19,76,68,61,64,62,59,94,77,52,30.04,29.96,29.86,12,8,6,22,7,,0.00,2,,97
2013-1-20,76,68,61,65,63,59,94,83,63,30.01,29.89,29.83,12,7,6,15,7,,0.00,4,,258
2013-1-21,76,68,60,64,61,57,94,76,46,30.06,30.02,29.98,12,8,6,12,6,,0.00,2,,252
2013-1-22,77,69,61,64,62,57,88,76,58,30.06,30.00,29.95,12,8,6,10,5,,0.00,2,,185
2013-1-23,76,70,64,64,63,61,94,79,55,29.99,29.95,29.92,12,7,3,13,4,,0.00,6,Rain,139
2013-1-24,76,68,61,64,60,59,94,72,53,29.98,29.92,29.89,12,8,6,14,5,,0.00,4,,241
2013-1-25,71,66,60,61,57,53,88,71,53,30.12,30.06,29.98,19,8,3,14,8,,0.00,6,Rain,246
2013-1-26,74,64,54,59,55,52,94,69,42,30.12,30.07,30.04,12,8,6,13,5,,0.00,2,Rain,115
2013-1-27,74,66,59,61,57,54,88,70,43,30.18,30.10,30.04,19,8,6,12,5,,0.00,3,,231
2013-1-28,75,68,60,64,60,57,94,77,60,30.18,30.13,30.06,12,8,6,22,8,,0.00,4,,94
2013-1-29,77,68,58,66,60,53,94,75,41,30.09,29.95,29.83,12,7,4,23,9,,0.20,3,Rain,102
2013-1-30,76,71,66,68,66,64,100,87,73,30.06,29.94,29.83,12,6,2,17,9,,0.08,6,Rain,212
2013-1-31,75,70,64,66,64,61,94,82,58,30.12,30.09,30.06,12,6,2,17,9,28,0.12,6,Rain,124